XNO35P LSGS-LOWS

Flight info

Callsign XNO35P
Flight time 0h 47m
Altitude 23000
Route SAPRE Z64 MOLUS/N0447F380 N871 KORED DCT BERSU DCT DITON DCT DEGES DCT GAMSA/N0449F370 N871 BADVI L725 UNKEN UNKEN2R
Aircraft A319/M-SDE3FGHIRWY/LB1

Departure

Time 2026-04-27 03:59
Airport Sion Airport (LSGS)

Arrival

Time 2026-04-27 04:46
Airport Salzburg Airport (LOWS)
Time Latitude Longitude Altitude Speed Heading
2026-04-27 03:44 46.22018 7.33685 1584 ft 0 kts 143°
2026-04-27 03:53 46.22025 7.33678 1584 ft 3 kts 180°
2026-04-27 03:53 46.22036 7.33682 1584 ft 0 kts 229°
2026-04-27 03:55 46.22033 7.33677 1584 ft 2 kts 229°
2026-04-27 03:55 46.22024 7.33648 1584 ft 6 kts 260°
2026-04-27 03:55 46.22017 7.33566 1584 ft 9 kts 263°
2026-04-27 03:55 46.22008 7.33448 1583 ft 14 kts 261°
2026-04-27 03:56 46.21975 7.33279 1583 ft 20 kts 252°
2026-04-27 03:56 46.21933 7.33084 1582 ft 21 kts 253°
2026-04-27 03:56 46.21885 7.32859 1582 ft 24 kts 252°
2026-04-27 03:56 46.21834 7.32623 1581 ft 25 kts 253°
2026-04-27 03:57 46.21780 7.32369 1581 ft 27 kts 252°
2026-04-27 03:57 46.21724 7.32108 1580 ft 27 kts 252°
2026-04-27 03:57 46.21662 7.31823 1579 ft 31 kts 252°
2026-04-27 03:57 46.21607 7.31566 1577 ft 16 kts 254°
2026-04-27 03:58 46.21665 7.31483 1575 ft 15 kts 25°
2026-04-27 03:58 46.21687 7.31531 1576 ft 0 kts 76°
2026-04-27 03:58 46.21705 7.31629 1578 ft 43 kts 74°
2026-04-27 03:59 46.21882 7.32447 1582 ft 125 kts 73°
2026-04-27 03:59 46.22181 7.33890 1802 ft 165 kts 73°
2026-04-27 03:59 46.22502 7.35507 2599 ft 170 kts 73°
2026-04-27 03:59 46.22828 7.37164 3420 ft 173 kts 73°
2026-04-27 04:00 46.23217 7.38812 4244 ft 174 kts 66°
2026-04-27 04:00 46.23738 7.40400 5074 ft 175 kts 64°
2026-04-27 04:00 46.24269 7.41989 5912 ft 176 kts 64°
2026-04-27 04:00 46.24826 7.43563 6759 ft 176 kts 59°
2026-04-27 04:01 46.25452 7.45078 7549 ft 175 kts 56°
2026-04-27 04:01 46.26110 7.46557 8337 ft 175 kts 55°
2026-04-27 04:01 46.26779 7.48015 9129 ft 174 kts 54°
2026-04-27 04:01 46.27450 7.49464 9921 ft 173 kts 55°
2026-04-27 04:02 46.28157 7.50855 10613 ft 171 kts 51°
2026-04-27 04:02 46.28905 7.52213 11233 ft 176 kts 50°
2026-04-27 04:02 46.29678 7.53643 11803 ft 185 kts 51°
2026-04-27 04:02 46.30455 7.55155 12448 ft 189 kts 51°
2026-04-27 04:03 46.31309 7.56613 13138 ft 190 kts 43°
2026-04-27 04:03 46.32292 7.57889 13848 ft 190 kts 34°
2026-04-27 04:03 46.33394 7.58949 14488 ft 191 kts 28°
2026-04-27 04:03 46.34550 7.59918 15078 ft 193 kts 26°
2026-04-27 04:04 46.35741 7.60831 15687 ft 194 kts 23°
2026-04-27 04:04 46.36972 7.61623 16289 ft 193 kts 19°
2026-04-27 04:04 46.38233 7.62243 16875 ft 190 kts 11°
2026-04-27 04:04 46.39529 7.62639 17382 ft 191 kts
2026-04-27 04:05 46.40832 7.63064 17803 ft 193 kts 11°
2026-04-27 04:05 46.42176 7.63618 17993 ft 210 kts 14°
2026-04-27 04:05 46.43629 7.64280 18138 ft 228 kts 15°
2026-04-27 04:05 46.45212 7.65000 18232 ft 251 kts 15°
2026-04-27 04:06 46.46952 7.65777 18377 ft 273 kts 15°
2026-04-27 04:06 46.48844 7.66605 18532 ft 296 kts 15°
2026-04-27 04:06 46.50890 7.67484 18653 ft 318 kts 14°
2026-04-27 04:07 46.55383 7.69388 18909 ft 358 kts 15°
2026-04-27 04:07 46.57842 7.70424 19023 ft 377 kts 14°
2026-04-27 04:07 46.60420 7.71509 19145 ft 394 kts 15°
2026-04-27 04:07 46.63095 7.72639 19459 ft 404 kts 15°
2026-04-27 04:08 46.65807 7.73785 19941 ft 408 kts 14°
2026-04-27 04:08 46.68547 7.74943 20455 ft 411 kts 14°
2026-04-27 04:08 46.71303 7.76110 20984 ft 414 kts 14°
2026-04-27 04:08 46.74072 7.77284 21488 ft 416 kts 14°
2026-04-27 04:09 46.76860 7.78466 21995 ft 418 kts 14°
2026-04-27 04:09 46.79667 7.79657 22489 ft 421 kts 14°
2026-04-27 04:09 46.82484 7.80853 22963 ft 423 kts 14°
2026-04-27 04:09 46.85323 7.82058 23184 ft 425 kts 14°
2026-04-27 04:10 46.88203 7.83278 23226 ft 437 kts 14°
2026-04-27 04:10 46.91154 7.84525 23229 ft 446 kts 14°
2026-04-27 04:10 46.94149 7.85797 23220 ft 449 kts 14°
2026-04-27 04:10 46.97154 7.87084 23224 ft 450 kts 14°
2026-04-27 04:11 47.00161 7.88378 23226 ft 450 kts 14°
2026-04-27 04:11 47.03163 7.89667 23225 ft 450 kts 14°
2026-04-27 04:11 47.06169 7.90957 23220 ft 450 kts 14°
2026-04-27 04:11 47.09132 7.92466 23218 ft 452 kts 22°
2026-04-27 04:12 47.11893 7.94693 23225 ft 455 kts 32°
2026-04-27 04:12 47.14369 7.97612 23223 ft 458 kts 41°
2026-04-27 04:12 47.16486 8.01132 23221 ft 461 kts 51°
2026-04-27 04:12 47.18245 8.05086 23221 ft 463 kts 56°
2026-04-27 04:13 47.19955 8.09094 23218 ft 463 kts 56°
2026-04-27 04:13 47.21664 8.13110 23219 ft 463 kts 56°
2026-04-27 04:13 47.23370 8.17129 23218 ft 463 kts 56°
2026-04-27 04:13 47.25048 8.21094 23219 ft 463 kts 56°
2026-04-27 04:14 47.26752 8.25127 23218 ft 463 kts 56°
2026-04-27 04:14 47.28443 8.29155 23220 ft 464 kts 57°
2026-04-27 04:14 47.29865 8.33430 23228 ft 466 kts 66°
2026-04-27 04:14 47.30835 8.38000 23227 ft 469 kts 75°
2026-04-27 04:15 47.31458 8.42729 23225 ft 470 kts 77°
2026-04-27 04:15 47.32065 8.47462 23219 ft 470 kts 77°
2026-04-27 04:15 47.32673 8.52186 23215 ft 470 kts 77°
2026-04-27 04:15 47.33281 8.56916 23213 ft 470 kts 77°
2026-04-27 04:16 47.33891 8.61648 23211 ft 470 kts 77°
2026-04-27 04:16 47.34502 8.66374 23209 ft 469 kts 77°
2026-04-27 04:16 47.35112 8.71105 23208 ft 469 kts 77°
2026-04-27 04:16 47.35716 8.75834 23219 ft 470 kts 77°
2026-04-27 04:17 47.36318 8.80570 23213 ft 470 kts 77°
2026-04-27 04:17 47.36915 8.85304 23211 ft 470 kts 77°
2026-04-27 04:17 47.37511 8.90049 23209 ft 470 kts 77°
2026-04-27 04:17 47.38102 8.94797 23209 ft 471 kts 77°
2026-04-27 04:18 47.38691 8.99543 23212 ft 470 kts 77°
2026-04-27 04:18 47.39282 9.04290 23203 ft 470 kts 77°
2026-04-27 04:18 47.39873 9.09040 23202 ft 470 kts 77°
2026-04-27 04:18 47.40462 9.13788 23206 ft 471 kts 77°
2026-04-27 04:19 47.41029 9.18548 23208 ft 471 kts 80°
2026-04-27 04:19 47.41249 9.23383 23203 ft 474 kts 88°
2026-04-27 04:19 47.41212 9.28254 23209 ft 474 kts 89°
2026-04-27 04:19 47.41166 9.33048 23204 ft 474 kts 89°
2026-04-27 04:20 47.41121 9.37918 23216 ft 474 kts 89°
2026-04-27 04:20 47.41078 9.42790 23220 ft 474 kts 89°
2026-04-27 04:20 47.41031 9.47658 23225 ft 474 kts 89°
2026-04-27 04:20 47.40982 9.52519 23226 ft 474 kts 89°
2026-04-27 04:21 47.40932 9.57395 23220 ft 474 kts 89°
2026-04-27 04:21 47.40880 9.62263 23228 ft 474 kts 89°
2026-04-27 04:21 47.40595 9.67120 23223 ft 477 kts 97°
2026-04-27 04:21 47.39979 9.71932 23223 ft 477 kts 99°
2026-04-27 04:22 47.39351 9.76738 23226 ft 477 kts 99°
2026-04-27 04:22 47.38725 9.81545 23218 ft 477 kts 99°
2026-04-27 04:22 47.38099 9.86347 23219 ft 477 kts 99°
2026-04-27 04:22 47.37470 9.91152 23214 ft 477 kts 99°
2026-04-27 04:23 47.36839 9.95953 23195 ft 477 kts 99°
2026-04-27 04:23 47.36206 10.00749 23201 ft 477 kts 99°
2026-04-27 04:23 47.35569 10.05541 23192 ft 476 kts 99°
2026-04-27 04:23 47.34931 10.10337 23189 ft 476 kts 99°
2026-04-27 04:24 47.34291 10.15128 23188 ft 476 kts 99°
2026-04-27 04:24 47.33876 10.18304 23179 ft 476 kts 97°
2026-04-27 04:24 47.33575 10.23148 23177 ft 474 kts 88°
2026-04-27 04:24 47.33795 10.27971 23189 ft 470 kts 79°
2026-04-27 04:25 47.34526 10.32646 23207 ft 467 kts 69°
2026-04-27 04:25 47.35741 10.37064 23208 ft 463 kts 60°
2026-04-27 04:25 47.37327 10.41184 23194 ft 461 kts 56°
2026-04-27 04:25 47.38952 10.45268 23203 ft 462 kts 57°
2026-04-27 04:26 47.39445 10.46557 23198 ft 463 kts 58°
2026-04-27 04:26 47.40750 10.50915 23199 ft 466 kts 67°
2026-04-27 04:26 47.41841 10.55420 23196 ft 466 kts 67°
2026-04-27 04:26 47.42940 10.59923 23196 ft 466 kts 67°
2026-04-27 04:27 47.44044 10.64430 23195 ft 466 kts 67°
2026-04-27 04:27 47.45146 10.68924 23193 ft 466 kts 67°
2026-04-27 04:27 47.46249 10.73430 23189 ft 466 kts 67°
2026-04-27 04:27 47.47352 10.77938 23197 ft 466 kts 67°
2026-04-27 04:28 47.48448 10.82449 23189 ft 466 kts 67°
2026-04-27 04:28 47.49538 10.86955 23187 ft 466 kts 67°
2026-04-27 04:28 47.50627 10.91475 23202 ft 466 kts 67°
2026-04-27 04:28 47.51716 10.95990 23198 ft 466 kts 67°
2026-04-27 04:29 47.52804 11.00510 23200 ft 467 kts 67°
2026-04-27 04:29 47.53890 11.05033 23192 ft 468 kts 67°
2026-04-27 04:29 47.54987 11.09615 22770 ft 474 kts 68°
2026-04-27 04:29 47.56086 11.14216 22290 ft 472 kts 68°
2026-04-27 04:30 47.57175 11.18784 21812 ft 470 kts 68°
2026-04-27 04:30 47.58262 11.23333 21350 ft 467 kts 68°
2026-04-27 04:30 47.59341 11.27848 20894 ft 463 kts 68°
2026-04-27 04:30 47.60411 11.32331 20446 ft 461 kts 68°
2026-04-27 04:31 47.61473 11.36800 20004 ft 458 kts 68°
2026-04-27 04:31 47.62520 11.41246 19574 ft 456 kts 69°
2026-04-27 04:31 47.63502 11.45699 19147 ft 453 kts 70°
2026-04-27 04:31 47.64421 11.50156 18718 ft 451 kts 71°
2026-04-27 04:32 47.65301 11.54607 18281 ft 449 kts 71°
2026-04-27 04:32 47.66166 11.59041 17789 ft 446 kts 71°
2026-04-27 04:32 47.67023 11.63392 17327 ft 444 kts 71°
2026-04-27 04:32 47.67895 11.67761 16862 ft 441 kts 71°
2026-04-27 04:33 47.68773 11.72108 16403 ft 438 kts 71°
2026-04-27 04:33 47.69647 11.76425 15944 ft 436 kts 71°
2026-04-27 04:33 47.70518 11.80716 15500 ft 433 kts 71°
2026-04-27 04:33 47.71362 11.85002 15066 ft 431 kts 72°
2026-04-27 04:34 47.72174 11.89281 14626 ft 430 kts 73°
2026-04-27 04:34 47.72964 11.93546 14198 ft 428 kts 73°
2026-04-27 04:34 47.73694 11.97825 13746 ft 426 kts 75°
2026-04-27 04:34 47.74327 12.02113 13265 ft 424 kts 77°
2026-04-27 04:35 47.74901 12.06398 12801 ft 422 kts 78°
2026-04-27 04:35 47.75450 12.10663 12334 ft 419 kts 78°
2026-04-27 04:35 47.75997 12.14902 11887 ft 416 kts 78°
2026-04-27 04:35 47.76556 12.19111 11432 ft 414 kts 78°
2026-04-27 04:36 47.77190 12.23263 10990 ft 410 kts 71°
2026-04-27 04:36 47.78356 12.27094 10599 ft 405 kts 61°
2026-04-27 04:36 47.79644 12.30742 10260 ft 391 kts 61°
2026-04-27 04:36 47.80884 12.34253 9905 ft 377 kts 61°
2026-04-27 04:37 47.82084 12.37641 9538 ft 364 kts 61°
2026-04-27 04:37 47.83249 12.40925 9170 ft 352 kts 61°
2026-04-27 04:37 47.84361 12.44062 8805 ft 333 kts 61°
2026-04-27 04:37 47.85413 12.47034 8448 ft 316 kts 61°
2026-04-27 04:38 47.86411 12.49853 8096 ft 301 kts 61°
2026-04-27 04:38 47.87368 12.52556 7745 ft 291 kts 61°
2026-04-27 04:38 47.88304 12.55203 7407 ft 288 kts 61°
2026-04-27 04:38 47.89235 12.57834 7064 ft 286 kts 61°
2026-04-27 04:39 47.90157 12.60444 6725 ft 283 kts 61°
2026-04-27 04:39 47.91070 12.63030 6371 ft 281 kts 61°
2026-04-27 04:39 47.91974 12.65602 6010 ft 279 kts 61°
2026-04-27 04:39 47.92867 12.68148 5655 ft 276 kts 62°
2026-04-27 04:40 47.93754 12.70681 5306 ft 274 kts 62°
2026-04-27 04:40 47.94617 12.73148 4958 ft 270 kts 61°
2026-04-27 04:40 47.95477 12.75614 4598 ft 266 kts 61°
2026-04-27 04:40 47.96318 12.78024 4232 ft 256 kts 62°
2026-04-27 04:41 47.97115 12.80319 4003 ft 243 kts 63°
2026-04-27 04:41 47.97590 12.82652 3985 ft 231 kts 82°
2026-04-27 04:41 47.97560 12.84998 3988 ft 222 kts 100°
2026-04-27 04:41 47.97083 12.87150 3993 ft 217 kts 117°
2026-04-27 04:42 47.96221 12.88983 3991 ft 216 kts 134°
2026-04-27 04:42 47.95081 12.90334 3986 ft 203 kts 150°
2026-04-27 04:42 47.93858 12.91174 4013 ft 185 kts 158°
2026-04-27 04:42 47.92717 12.91903 3983 ft 175 kts 158°
2026-04-27 04:43 47.91607 12.92611 3836 ft 172 kts 158°
2026-04-27 04:43 47.90514 12.93306 3639 ft 170 kts 158°
2026-04-27 04:43 47.89431 12.93994 3422 ft 168 kts 158°
2026-04-27 04:43 47.88356 12.94677 3196 ft 168 kts 158°
2026-04-27 04:44 47.87287 12.95355 2974 ft 165 kts 158°
2026-04-27 04:44 47.86261 12.96006 2755 ft 156 kts 157°
2026-04-27 04:44 47.85286 12.96624 2539 ft 148 kts 157°
2026-04-27 04:44 47.84354 12.97212 2323 ft 143 kts 157°
2026-04-27 04:45 47.83447 12.97788 2107 ft 141 kts 157°
2026-04-27 04:45 47.82553 12.98366 1901 ft 140 kts 156°
2026-04-27 04:45 47.81664 12.98933 1712 ft 139 kts 157°
2026-04-27 04:45 47.80774 12.99487 1517 ft 138 kts 157°
2026-04-27 04:46 47.79901 13.00038 1423 ft 128 kts 157°
2026-04-27 04:46 47.79281 13.00428 1422 ft 55 kts 157°
2026-04-27 04:46 47.79125 13.00481 1420 ft 16 kts 223°
2026-04-27 04:46 47.79118 13.00353 1419 ft 12 kts 275°
2026-04-27 04:47 47.79148 13.00244 1421 ft 12 kts 324°
2026-04-27 04:47 47.79223 13.00195 1422 ft 12 kts 338°
2026-04-27 04:47 47.79299 13.00151 1423 ft 9 kts 338°
2026-04-27 04:47 47.79336 13.00124 1423 ft 7 kts 328°
2026-04-27 04:48 47.79350 13.00042 1422 ft 10 kts 248°
2026-04-27 04:48 47.79319 12.99948 1422 ft 10 kts 245°
2026-04-27 04:48 47.79330 12.99861 1422 ft 9 kts 304°
2026-04-27 04:48 47.79321 12.99802 1422 ft 6 kts 237°
2026-04-27 04:49 47.79317 12.99787 1422 ft 0 kts 251°
2026-04-27 04:49 47.79316 12.99782 1422 ft 1 kts 257°
2026-04-27 04:49 47.79317 12.99775 1422 ft 0 kts 269°